METEOR 2-11 DEB, 40705

Orbit data source: Space-Track

METEOR 2-11 DEB, 40705 is space debris in LEO originally from a launch on Thu, 05 Jul 1984 UTC launched from the Plesetsk Missile And Space Complex (PKMTR). Debris objects in space refer to the collection of defunct objects orbiting the Earth. Examples of debris include non-operational satellites, rocket bodies, and fragments generated from explosions, collisions, or faulty payload assembly.

Loading next visibility...
Identifier
40705, 1984-072G
Orbit
LEO
Last TLE update
3 days ago
Origin
Manufacturer
Unknown
Mission
Spacecraft
Bus & Motor
Unknown
Mass
Unknown
Launch date (UTC)
1984-07-05 (41 years ago)
Launch vehicle
Unknown
Launch site
Plesetsk Missile And Space Complex (PKMTR)
Object type
Payload
Rocket body
Debris
Shape & HBR
Unknown
Radar Cross Section
Small (<0.1 m²)

Expand to show TLE details & history

TLE from 3 days ago
0 METEOR 2-11 DEB
1 40705U 84072G   25125.87131974  .00002717  00000-0  19571-2 0  9994
2 40705  82.5223 339.0209 0023879 131.8535 228.4676 13.96323264530463
Epoch: 2025-05-05T20:54Z
Definitive object data (Epoch: 2025-05-05T20:54:42.025Z)
Latitude
0.00003°
Longitude
161.36714°
Altitude
921.033 km
Speed
7.386 km/s
True Right ascension
22h 36m 05s
True Declination
0° 00' 00"
Sunlit
Object was in daylight at TLE epoch
Visualization TLE readout
Latitude
-12.91755°
Longitude
156.91445°
Altitude
924.28 km
Speed
7.383 km/s
Apparent Right ascension
23h 42m 54s
Apparent Declination
-27° 46' 41"
Sunlit
Object is in daylight
Visualization observer readout
Local Sidereal Time
13:49:26
Azimuth
74.819° E
Elevation
-61.26°
Doppler factor
1
Orbital elements
Apogee altitude
921.079 km
Perigee altitude
886.303 km
Semi-major axis
7,281.828 km
Eccentricity
0.0023879
Inclination
82.5223°
RAAN
339.0209°
Arg. of periapsis
131.8535°
True anomaly
228.26317°
Mean anomaly
228.4676°
Eccentric anomaly
228.36534°
Mean motion
3.49287 °/min
BSTAR
0.0019571
Orbital period
103.07 mins
Loading maneuver chart data...
Loading SW <> Apogee altitude chart data...
Loading historical data...
Loading historical data...
Loading historical data...
Loading historical data...
Loading historical data...
Loading historical data...
Loading historical data...

METEOR 2-11 DEB Visibility forecast

Observer location: undefined°, undefined°

Span
Click to sort rows by Start time (UTC) header in descending order
Start Az.
Max El. time (UTC)
Max El. Az.
Max El.
End time (UTC)
End Az.
10 mins2025-05-09 14:26:43.756Z180.611° SSW2025-05-09 14:31:43.756Z116.364° SE44.429°2025-05-09 14:36:43.756Z10.769° NNE
4 mins2025-05-09 16:14:43.756Z273.941° WNW2025-05-09 16:16:43.756Z295.854° NW13.474°2025-05-09 16:18:43.756Z317.229° NNW
10 mins2025-05-10 01:14:43.756Z5.581° NNE2025-05-10 01:18:43.756Z61.412° ENE38.531°2025-05-10 01:24:43.756Z156.07° SSE
6 mins2025-05-10 02:59:43.756Z310.289° NW2025-05-10 03:02:43.756Z274.299° WNW18.138°2025-05-10 03:05:43.756Z239.326° WSW
|